Weather History for Barter Island, AK

Change the Weather History Date:

Thursday, January 24, 2013

  Actual Average Record
Temperature  
Mean Temperature -26 °F -  
Max Temperature -20 °F -5 °F 28 °F (1999)
Min Temperature -33 °F -16 °F -40 °F (2012)
Degree Days  
Heating Degree Days 90    
Moisture  
Dew Point -27 °F    
Average Humidity 78    
Maximum Humidity 83    
Minimum Humidity 73    
Precipitation  
Precipitation 0.00 in - - ()
Sea Level Pressure  
Sea Level Pressure 30.36 in    
Wind  
Wind Speed 20 mph (West)    
Max Wind Speed 38 mph    
Max Gust Speed 45 mph    
Visibility 2 miles    
Events Snow    
Averages and records for this station are not official NWS values.
T = Trace of Precipitation, MM = Missing Value Source: NWS Daily Summary

Daily Weather History Graph

Daily Weather History Graph

Search for Another Location

Airport:

Trip Planner

Search our weather history database for the weather conditions in past years. The results will help you decide how hot, cold, wet, or windy it might be!

Date:

Astronomy

Jan. 24, 2013 Rise Set
Actual Time 11:07 AM AKST 2:26 PM AKST
Civil Twilight 9:22 AM AKST 4:11 PM AKST
Nautical Twilight 7:58 AM AKST 5:36 PM AKST
Astronomical Twilight 6:45 AM AKST 6:49 PM AKST
Moon 11:41 AM AKST (1/24) 10:10 AM AKST (1/24)
Length of Visible Light 6h 49m
Length of Day
3h 18m
Waxing Gibbous, 95% of the Moon is Illuminated
Jan 24
Waxing Gibbous
Jan 26
Full
Feb 3
Last Quarter
Feb 9
New
Feb 17
First Quarter

Hourly Weather History & Observations

Time (AKST) Temp. Windchill Dew Point Humidity Pressure Visibility Wind Dir Wind Speed Gust Speed Precip Events Conditions
12:01 AM -32.1 °F - - N/A% 30.49 in 10.0 mi Calm Calm - N/A   Clear
1:01 AM -32.1 °F - - N/A% 30.48 in 10.0 mi Calm Calm - N/A   Clear
2:01 AM -33.0 °F -48.4 °F - N/A% 30.46 in 10.0 mi WSW 4.6 mph - N/A   Clear
3:01 AM -32.1 °F -51.6 °F - N/A% 30.45 in 10.0 mi West 6.9 mph - N/A   Clear
4:01 AM -29.9 °F -49.0 °F - N/A% 30.44 in 10.0 mi West 6.9 mph - N/A   Clear
5:01 AM -33.0 °F -54.3 °F - N/A% 30.43 in 9.0 mi West 8.1 mph - N/A   Clear
6:01 AM -32.1 °F -57.3 °F - N/A% 30.43 in 10.0 mi West 11.5 mph - N/A   Clear
7:01 AM -29.9 °F -57.7 °F - N/A% 30.43 in 6.0 mi West 15.0 mph - N/A   Haze
8:01 AM -27.0 °F -57.2 °F -33.0 °F 73% 30.43 in 5.0 mi West 19.6 mph - 0.00 in Snow Light Snow
9:01 AM -26.0 °F -58.4 °F -31.0 °F 77% 30.43 in 5.0 mi West 24.2 mph - 0.00 in   Haze
10:01 AM -25.1 °F -57.2 °F -31.0 °F 74% 30.42 in 4.0 mi West 24.2 mph - N/A   Haze
10:41 AM -25.6 °F -57.9 °F -29.2 °F 83% 30.41 in 2.0 mi West 24.2 mph - N/A   Haze
10:53 AM -25.6 °F -56.7 °F -29.2 °F 83% 30.40 in 3.0 mi West 21.9 mph - N/A   Haze
11:01 AM -25.6 °F -57.3 °F -29.2 °F 83% 30.40 in 2.0 mi West 23.0 mph - N/A   Haze
11:08 AM -25.6 °F -58.5 °F -29.2 °F 83% 30.40 in 1.5 mi West 25.3 mph - N/A   Haze
11:21 AM -24.0 °F -56.8 °F -29.9 °F 74% 30.40 in 1.8 mi West 26.5 mph - N/A   Haze
12:01 PM -24.0 °F -55.7 °F -29.0 °F 77% 30.40 in 1.2 mi West 24.2 mph - N/A   Haze
12:07 PM -23.8 °F -56.1 °F -29.2 °F 76% 30.39 in 1.0 mi West 25.3 mph - N/A   Haze
12:12 PM -23.8 °F -57.1 °F -29.2 °F 76% 30.39 in 1.0 mi West 27.6 mph - N/A   Haze
12:15 PM -23.8 °F -56.1 °F -29.2 °F 76% 30.39 in 0.8 mi West 25.3 mph - N/A   Haze
12:20 PM -23.8 °F -56.1 °F -29.2 °F 76% 30.39 in 1.0 mi West 25.3 mph - N/A   Haze
12:37 PM -23.8 °F -57.1 °F -29.2 °F 76% 30.38 in 0.8 mi West 27.6 mph - N/A   Haze
12:46 PM -23.8 °F -55.5 °F -29.2 °F 76% 30.38 in 0.8 mi West 24.2 mph - N/A   Haze
12:53 PM -23.8 °F -57.1 °F -29.2 °F 76% 30.38 in 0.8 mi West 27.6 mph 33.4 mph N/A   Haze
12:57 PM -23.8 °F -57.1 °F -29.2 °F 76% 30.38 in 0.8 mi West 27.6 mph 33.4 mph N/A   Haze
1:01 PM -23.1 °F -56.7 °F -29.0 °F 74% 30.38 in 0.8 mi West 28.8 mph - N/A   Haze
1:18 PM -23.8 °F -59.1 °F -27.4 °F 83% 30.38 in 0.5 mi West 32.2 mph - 0.00 in Snow Snow
1:31 PM -23.8 °F -59.1 °F -27.4 °F 83% 30.38 in 0.5 mi West 32.2 mph 39.1 mph 0.00 in Snow Snow
2:01 PM -23.1 °F -58.5 °F -27.9 °F 78% 30.36 in 0.5 mi West 33.4 mph 41.4 mph 0.00 in Snow Snow
2:18 PM -23.8 °F -59.1 °F -27.4 °F 83% 30.36 in 0.5 mi West 32.2 mph 40.3 mph 0.00 in Snow Snow
2:35 PM -23.8 °F -59.5 °F -27.4 °F 83% 30.35 in 0.8 mi West 33.4 mph 39.1 mph 0.00 in Snow Light Snow
2:59 PM -23.8 °F -59.5 °F -27.4 °F 83% 30.34 in 0.8 mi West 33.4 mph 40.3 mph 0.00 in   Haze
3:00 PM -23.1 °F -58.1 °F -27.9 °F 78% 30.34 in 0.8 mi West 32.2 mph 39.1 mph 0.00 in   Haze
3:12 PM -22.0 °F -56.2 °F -27.4 °F 76% 30.34 in 0.8 mi West 31.1 mph - N/A   Haze
3:55 PM -22.0 °F -57.5 °F -27.4 °F 76% 30.33 in 1.2 mi West 34.5 mph - 0.00 in   Haze
4:01 PM -22.0 °F -57.9 °F -27.0 °F 77% 30.33 in 1.2 mi West 35.7 mph - 0.00 in Snow Light Snow
4:08 PM -22.0 °F -57.1 °F -27.4 °F 76% 30.33 in 1.0 mi West 33.4 mph 44.9 mph 0.00 in Snow Light Snow
4:40 PM -20.2 °F -54.6 °F -25.6 °F 76% 30.31 in 0.8 mi West 33.4 mph 39.1 mph 0.00 in Snow Light Snow
5:01 PM -20.9 °F -55.6 °F -26.0 °F 77% 30.31 in 0.8 mi West 33.4 mph 39.1 mph 0.00 in Snow Light Snow
5:11 PM -20.2 °F -56.2 °F -25.6 °F 76% 30.32 in 0.5 mi West 38.0 mph 42.6 mph 0.00 in Snow Snow
5:19 PM -20.2 °F -55.0 °F -25.6 °F 76% 30.32 in 0.5 mi West 34.5 mph 40.3 mph 0.00 in Snow Snow
5:27 PM -20.2 °F -54.6 °F -25.6 °F 76% 30.31 in 0.8 mi West 33.4 mph 39.1 mph 0.00 in Snow Light Snow
6:01 PM -20.0 °F -55.2 °F -25.1 °F 78% 30.30 in 0.8 mi WNW 35.7 mph 42.6 mph 0.00 in Snow Light Snow
7:01 PM -18.9 °F -52.0 °F -24.0 °F 78% 30.30 in 0.8 mi West 31.1 mph 41.4 mph 0.00 in Snow Light Snow
7:37 PM -18.4 °F -51.3 °F -23.8 °F 76% 30.29 in 1.0 mi West 31.1 mph 39.1 mph 0.00 in Snow Light Snow
7:52 PM -18.4 °F -53.7 °F -23.8 °F 76% 30.29 in 0.8 mi WNW 38.0 mph 42.6 mph 0.00 in Snow Light Snow
8:01 PM -18.9 °F -54.1 °F -24.0 °F 78% 30.29 in 0.8 mi WNW 36.8 mph 42.6 mph 0.00 in Snow Light Snow
8:25 PM -18.4 °F -52.5 °F -23.8 °F 76% 30.29 in 1.0 mi WNW 34.5 mph 42.6 mph 0.00 in Snow Light Snow
8:33 PM -18.4 °F -52.5 °F -23.8 °F 76% 30.29 in 0.8 mi West 34.5 mph 42.6 mph 0.00 in Snow Light Snow
8:50 PM -20.2 °F -54.6 °F -23.8 °F 83% 30.29 in 1.0 mi WNW 33.4 mph 40.3 mph 0.00 in Snow Light Snow
9:01 PM -20.0 °F -54.8 °F -25.1 °F 78% 30.29 in 1.0 mi WNW 34.5 mph 40.3 mph 0.00 in Snow Light Snow
10:01 PM -20.0 °F -53.5 °F -25.1 °F 78% 30.28 in 1.0 mi WNW 31.1 mph 35.7 mph 0.00 in Snow Light Snow
10:20 PM -20.2 °F -53.7 °F -25.6 °F 76% 30.28 in 0.8 mi West 31.1 mph 36.8 mph 0.00 in Snow Light Snow
11:01 PM -20.9 °F -55.1 °F -26.0 °F 77% 30.28 in 0.8 mi West 32.2 mph - 0.00 in Snow Light Snow
11:15 PM -20.2 °F -53.7 °F -25.6 °F 76% 30.28 in 1.0 mi West 31.1 mph 35.7 mph 0.00 in Snow Light Snow
11:23 PM -20.2 °F -52.3 °F -25.6 °F 76% 30.27 in 0.8 mi WNW 27.6 mph 38.0 mph 0.00 in Snow Light Snow
11:30 PM -20.2 °F -52.8 °F -25.6 °F 76% 30.28 in 1.0 mi WNW 28.8 mph 33.4 mph 0.00 in Snow Light Snow
11:59 PM -20.2 °F -53.3 °F -25.6 °F 76% 30.28 in 1.2 mi WNW 29.9 mph 34.5 mph 0.00 in Snow Light Snow